Location: Unspecified
(45.7563°N, 18.1623°E)
Time: 01:14:50
(UTC+02:00)

ISS - Visible Passes

Search period start: 25 August 2019 00:00
Search period end: 04 September 2019 00:00
Orbit: 410 x 421 km, 51.6° (Epoch: 25 August)

Date Brightness Start Highest point End Pass type
(mag) Time Alt. Az. Time Alt. Az. Time Alt. Az.
27 Aug -1.0 04:51:15 10° SSE 04:52:42 12° SE 04:54:09 10° ESE visible
29 Aug -2.3 04:49:14 14° SSW 04:51:29 29° SE 04:54:27 10° ENE visible
30 Aug -1.7 04:02:33 18° SE 04:02:51 18° SE 04:05:13 10° E visible
31 Aug -3.7 04:48:41 26° SW 04:50:25 70° SSE 04:53:45 10° ENE visible
01 Sep -3.0 04:01:51 42° SE 04:01:51 42° SE 04:04:50 10° ENE visible
01 Sep -2.9 05:35:11 10° W 05:38:23 42° NNW 05:41:37 10° NE visible
02 Sep -1.0 03:14:59 15° E 03:14:59 15° E 03:15:47 10° E visible
02 Sep -3.4 04:47:51 26° W 04:49:28 56° NNW 04:52:47 10° ENE visible
03 Sep -3.5 04:00:57 68° NE 04:00:57 68° NE 04:03:56 10° ENE visible
03 Sep -2.3 05:34:36 10° WNW 05:37:38 31° N 05:40:40 10° ENE visible
